LGS2281 EBBR-LKPR

Flight info

Callsign LGS2281
Flight time 1h 12m
Altitude 35000
Route SOPOK Y863 ROPUV L607 EMGOD DCT BOMBI DCT BOREP DCT TONSU Z35 ODOMO DCT LOMKI
Aircraft B738/M-SDE2E3FGHIRWXY/LB1

Departure

Time 2026-05-07 09:42
Airport Brussels Airport (EBBR)

Arrival

Time 2026-05-07 10:54
Airport Václav Havel Airport Prague (LKPR)
Time Latitude Longitude Altitude Speed Heading
2026-05-07 09:17 50.90284 4.48637 117 ft 0 kts 335°
2026-05-07 09:30 50.90271 4.48646 119 ft 4 kts 339°
2026-05-07 09:31 50.90246 4.48659 118 ft 4 kts 351°
2026-05-07 09:31 50.90220 4.48659 120 ft 4 kts 21°
2026-05-07 09:31 50.90205 4.48642 119 ft 0 kts 65°
2026-05-07 09:36 50.90220 4.48694 122 ft 15 kts 65°
2026-05-07 09:36 50.90270 4.48866 120 ft 19 kts 66°
2026-05-07 09:36 50.90325 4.49057 119 ft 19 kts 65°
2026-05-07 09:36 50.90378 4.49242 122 ft 18 kts 65°
2026-05-07 09:37 50.90412 4.49427 123 ft 18 kts 103°
2026-05-07 09:37 50.90318 4.49535 124 ft 19 kts 187°
2026-05-07 09:37 50.90190 4.49484 127 ft 19 kts 194°
2026-05-07 09:37 50.90062 4.49431 127 ft 22 kts 194°
2026-05-07 09:38 50.89886 4.49359 137 ft 27 kts 194°
2026-05-07 09:38 50.89710 4.49288 148 ft 25 kts 194°
2026-05-07 09:38 50.89556 4.49185 156 ft 23 kts 199°
2026-05-07 09:38 50.89403 4.49123 163 ft 23 kts 194°
2026-05-07 09:39 50.89254 4.49062 170 ft 22 kts 195°
2026-05-07 09:39 50.89108 4.49003 176 ft 21 kts 194°
2026-05-07 09:39 50.88967 4.48945 182 ft 21 kts 194°
2026-05-07 09:39 50.88829 4.48889 196 ft 20 kts 194°
2026-05-07 09:40 50.88757 4.48905 201 ft 0 kts 133°
2026-05-07 09:40 50.88753 4.48913 207 ft 5 kts 126°
2026-05-07 09:40 50.88736 4.49006 195 ft 10 kts 104°
2026-05-07 09:40 50.88727 4.49115 191 ft 11 kts 76°
2026-05-07 09:41 50.88798 4.49186 188 ft 14 kts 15°
2026-05-07 09:41 50.88822 4.49195 187 ft 1 kts 13°
2026-05-07 09:41 50.88920 4.49234 183 ft 49 kts 14°
2026-05-07 09:41 50.89541 4.49488 160 ft 132 kts 14°
2026-05-07 09:42 50.90623 4.49936 442 ft 173 kts 15°
2026-05-07 09:42 50.91814 4.50519 1389 ft 184 kts 24°
2026-05-07 09:42 50.92945 4.51560 2326 ft 192 kts 46°
2026-05-07 09:42 50.93471 4.53516 3095 ft 197 kts 93°
2026-05-07 09:43 50.92922 4.55430 4095 ft 198 kts 131°
2026-05-07 09:43 50.91916 4.57098 4587 ft 225 kts 131°
2026-05-07 09:43 50.90799 4.59080 4890 ft 257 kts 130°
2026-05-07 09:43 50.89550 4.61193 5587 ft 269 kts 143°
2026-05-07 09:44 50.87842 4.62413 6555 ft 271 kts 169°
2026-05-07 09:44 50.85965 4.62760 7534 ft 272 kts 176°
2026-05-07 09:44 50.84056 4.62986 8402 ft 278 kts 176°
2026-05-07 09:44 50.82110 4.63212 9303 ft 283 kts 176°
2026-05-07 09:45 50.80161 4.63457 10175 ft 287 kts 175°
2026-05-07 09:45 50.78120 4.63727 10655 ft 306 kts 175°
2026-05-07 09:45 50.75914 4.64027 10999 ft 327 kts 175°
2026-05-07 09:45 50.73640 4.64604 11697 ft 335 kts 161°
2026-05-07 09:46 50.71633 4.66485 12548 ft 340 kts 137°
2026-05-07 09:46 50.70246 4.69510 13385 ft 345 kts 114°
2026-05-07 09:46 50.69439 4.73100 14153 ft 350 kts 108°
2026-05-07 09:46 50.68728 4.76811 14857 ft 355 kts 107°
2026-05-07 09:47 50.68029 4.80580 15606 ft 359 kts 107°
2026-05-07 09:47 50.67320 4.84371 16354 ft 362 kts 107°
2026-05-07 09:47 50.66592 4.88192 17094 ft 366 kts 107°
2026-05-07 09:47 50.65855 4.92001 17804 ft 370 kts 107°
2026-05-07 09:48 50.65082 4.95952 18497 ft 374 kts 107°
2026-05-07 09:48 50.64315 4.99842 19133 ft 378 kts 108°
2026-05-07 09:48 50.63528 5.03814 19761 ft 381 kts 108°
2026-05-07 09:48 50.62734 5.07809 20396 ft 384 kts 108°
2026-05-07 09:49 50.61930 5.11849 21010 ft 388 kts 108°
2026-05-07 09:49 50.61118 5.15925 21608 ft 392 kts 108°
2026-05-07 09:49 50.60294 5.20052 22201 ft 396 kts 108°
2026-05-07 09:49 50.59463 5.24199 22792 ft 399 kts 108°
2026-05-07 09:50 50.58435 5.28264 23338 ft 402 kts 122°
2026-05-07 09:50 50.56647 5.31644 23852 ft 404 kts 137°
2026-05-07 09:50 50.54593 5.34674 24367 ft 406 kts 138°
2026-05-07 09:50 50.52533 5.37641 24839 ft 409 kts 138°
2026-05-07 09:51 50.50429 5.40669 25305 ft 412 kts 138°
2026-05-07 09:51 50.48319 5.43726 25768 ft 414 kts 138°
2026-05-07 09:51 50.46204 5.46812 26230 ft 417 kts 137°
2026-05-07 09:51 50.44076 5.49931 26677 ft 420 kts 137°
2026-05-07 09:52 50.41938 5.53071 27110 ft 423 kts 137°
2026-05-07 09:52 50.39788 5.56228 27547 ft 425 kts 137°
2026-05-07 09:52 50.37621 5.59407 27974 ft 428 kts 137°
2026-05-07 09:52 50.35443 5.62598 28386 ft 430 kts 137°
2026-05-07 09:53 50.33248 5.65810 28777 ft 433 kts 137°
2026-05-07 09:53 50.31043 5.69032 29165 ft 436 kts 137°
2026-05-07 09:53 50.28814 5.72283 29559 ft 438 kts 137°
2026-05-07 09:53 50.26617 5.75589 29973 ft 440 kts 131°
2026-05-07 09:54 50.24950 5.79567 30399 ft 439 kts 112°
2026-05-07 09:54 50.24020 5.84089 30921 ft 435 kts 104°
2026-05-07 09:54 50.23282 5.88663 31343 ft 434 kts 103°
2026-05-07 09:54 50.22562 5.93255 31701 ft 435 kts 103°
2026-05-07 09:55 50.21828 5.97836 32071 ft 435 kts 104°
2026-05-07 09:55 50.21071 6.02406 32498 ft 434 kts 104°
2026-05-07 09:55 50.20301 6.06956 32924 ft 433 kts 104°
2026-05-07 09:55 50.19535 6.11432 33282 ft 433 kts 104°
2026-05-07 09:56 50.18772 6.16049 33630 ft 433 kts 101°
2026-05-07 09:56 50.18381 6.20696 33980 ft 432 kts 92°
2026-05-07 09:56 50.18472 6.25372 34286 ft 431 kts 84°
2026-05-07 09:56 50.18777 6.29978 34522 ft 433 kts 83°
2026-05-07 09:57 50.19114 6.34652 34732 ft 435 kts 83°
2026-05-07 09:57 50.19444 6.39347 34987 ft 435 kts 83°
2026-05-07 09:57 50.19760 6.44084 34994 ft 441 kts 84°
2026-05-07 09:58 50.20354 6.53617 35005 ft 440 kts 84°
2026-05-07 09:58 50.20925 6.63036 34997 ft 434 kts 84°
2026-05-07 09:59 50.21482 6.72439 35018 ft 435 kts 84°
2026-05-07 09:59 50.22031 6.81866 35024 ft 437 kts 84°
2026-05-07 10:00 50.21968 6.91356 35031 ft 438 kts 95°
2026-05-07 10:00 50.21399 7.00845 35024 ft 439 kts 95°
2026-05-07 10:01 50.20843 7.10353 35020 ft 439 kts 95°
2026-05-07 10:01 50.20323 7.19809 35020 ft 439 kts 95°
2026-05-07 10:02 50.19887 7.27760 35023 ft 439 kts 95°
2026-05-07 10:02 50.19304 7.37240 35013 ft 438 kts 97°
2026-05-07 10:03 50.18455 7.46664 35014 ft 438 kts 98°
2026-05-07 10:03 50.17566 7.56003 35015 ft 438 kts 98°
2026-05-07 10:04 50.16692 7.65408 35016 ft 438 kts 98°
2026-05-07 10:04 50.15831 7.74808 35020 ft 438 kts 98°
2026-05-07 10:05 50.14967 7.84203 35024 ft 438 kts 98°
2026-05-07 10:05 50.14095 7.93600 35027 ft 438 kts 98°
2026-05-07 10:06 50.13216 8.02979 35026 ft 438 kts 99°
2026-05-07 10:06 50.12328 8.12369 35028 ft 438 kts 99°
2026-05-07 10:07 50.11431 8.21765 35027 ft 438 kts 99°
2026-05-07 10:07 50.10533 8.31092 35029 ft 438 kts 99°
2026-05-07 10:08 50.09622 8.40484 35027 ft 438 kts 99°
2026-05-07 10:08 50.08704 8.49851 35023 ft 438 kts 99°
2026-05-07 10:09 50.07779 8.59222 35023 ft 438 kts 99°
2026-05-07 10:09 50.06846 8.68596 35017 ft 438 kts 99°
2026-05-07 10:10 50.05907 8.77950 35019 ft 437 kts 100°
2026-05-07 10:10 50.05278 8.87378 35021 ft 438 kts 95°
2026-05-07 10:11 50.04915 8.96850 35014 ft 438 kts 94°
2026-05-07 10:11 50.04551 9.06266 35008 ft 439 kts 95°
2026-05-07 10:12 50.04146 9.15738 34994 ft 439 kts 95°
2026-05-07 10:12 50.03718 9.25225 34997 ft 439 kts 95°
2026-05-07 10:13 50.03279 9.34713 34997 ft 440 kts 95°
2026-05-07 10:13 50.02832 9.44196 34995 ft 440 kts 96°
2026-05-07 10:14 50.02377 9.53706 34987 ft 440 kts 96°
2026-05-07 10:14 50.01918 9.63153 34993 ft 440 kts 96°
2026-05-07 10:15 50.01447 9.72662 34980 ft 441 kts 96°
2026-05-07 10:15 50.00970 9.82157 34985 ft 440 kts 96°
2026-05-07 10:16 50.00485 9.91647 34978 ft 440 kts 96°
2026-05-07 10:16 49.99992 10.01131 34982 ft 440 kts 97°
2026-05-07 10:17 49.99491 10.10618 34996 ft 441 kts 97°
2026-05-07 10:17 49.98981 10.20136 34979 ft 442 kts 97°
2026-05-07 10:18 49.98464 10.29653 34978 ft 442 kts 97°
2026-05-07 10:18 49.97937 10.39191 34983 ft 443 kts 97°
2026-05-07 10:19 49.97406 10.48662 34975 ft 443 kts 97°
2026-05-07 10:19 49.96862 10.58254 34973 ft 442 kts 98°
2026-05-07 10:20 49.96524 10.67728 34980 ft 443 kts 92°
2026-05-07 10:20 49.96646 10.77320 34971 ft 444 kts 91°
2026-05-07 10:21 49.96784 10.86899 34965 ft 444 kts 91°
2026-05-07 10:21 49.96866 10.96480 34966 ft 444 kts 92°
2026-05-07 10:22 49.96921 11.06085 34963 ft 444 kts 92°
2026-05-07 10:22 49.96970 11.15682 34969 ft 445 kts 92°
2026-05-07 10:23 49.96971 11.25246 34950 ft 438 kts 95°
2026-05-07 10:23 49.96668 11.34591 34958 ft 436 kts 97°
2026-05-07 10:23 49.96484 11.39318 34692 ft 440 kts 97°
2026-05-07 10:24 49.96309 11.44035 34383 ft 435 kts 97°
2026-05-07 10:24 49.96145 11.48704 34008 ft 431 kts 97°
2026-05-07 10:24 49.95988 11.53334 33585 ft 428 kts 97°
2026-05-07 10:24 49.95831 11.57938 33169 ft 424 kts 97°
2026-05-07 10:25 49.95674 11.62500 32774 ft 421 kts 97°
2026-05-07 10:25 49.95520 11.67015 32411 ft 417 kts 97°
2026-05-07 10:25 49.95367 11.71497 32030 ft 413 kts 97°
2026-05-07 10:25 49.95215 11.75931 31663 ft 410 kts 97°
2026-05-07 10:26 49.95064 11.80284 31303 ft 407 kts 97°
2026-05-07 10:26 49.94910 11.84664 30941 ft 404 kts 97°
2026-05-07 10:26 49.94756 11.89007 30585 ft 401 kts 97°
2026-05-07 10:26 49.94601 11.93322 30223 ft 399 kts 97°
2026-05-07 10:27 49.94481 11.97608 29848 ft 396 kts 96°
2026-05-07 10:27 49.94395 12.01877 29442 ft 393 kts 96°
2026-05-07 10:27 49.94317 12.06111 29065 ft 389 kts 96°
2026-05-07 10:27 49.94238 12.10277 28696 ft 384 kts 96°
2026-05-07 10:28 49.94154 12.14410 28327 ft 381 kts 96°
2026-05-07 10:28 49.94066 12.18504 27949 ft 377 kts 96°
2026-05-07 10:28 49.93976 12.22510 27597 ft 374 kts 96°
2026-05-07 10:28 49.93885 12.26540 27216 ft 371 kts 96°
2026-05-07 10:29 49.93792 12.30531 26870 ft 368 kts 96°
2026-05-07 10:29 49.93699 12.34482 26523 ft 365 kts 97°
2026-05-07 10:29 49.93597 12.38411 26178 ft 363 kts 97°
2026-05-07 10:30 49.93376 12.46211 25466 ft 360 kts 97°
2026-05-07 10:30 49.93264 12.50042 25124 ft 358 kts 97°
2026-05-07 10:30 49.93152 12.53895 24786 ft 356 kts 97°
2026-05-07 10:30 49.93039 12.57717 24442 ft 354 kts 97°
2026-05-07 10:31 49.92925 12.61531 24103 ft 353 kts 96°
2026-05-07 10:31 49.92812 12.65329 23756 ft 351 kts 96°
2026-05-07 10:31 49.92698 12.69104 23415 ft 350 kts 96°
2026-05-07 10:31 49.92582 12.72878 23012 ft 349 kts 96°
2026-05-07 10:32 49.92467 12.76636 22657 ft 347 kts 96°
2026-05-07 10:32 49.92351 12.80357 22311 ft 344 kts 96°
2026-05-07 10:32 49.92235 12.84054 21991 ft 341 kts 96°
2026-05-07 10:32 49.92119 12.87730 21630 ft 339 kts 97°
2026-05-07 10:33 49.92003 12.91322 21313 ft 337 kts 97°
2026-05-07 10:33 49.91886 12.94950 20976 ft 335 kts 97°
2026-05-07 10:33 49.91768 12.98543 20651 ft 332 kts 97°
2026-05-07 10:33 49.91650 13.02119 20336 ft 330 kts 97°
2026-05-07 10:34 49.91531 13.05671 20015 ft 329 kts 97°
2026-05-07 10:34 49.91413 13.09198 19698 ft 327 kts 96°
2026-05-07 10:34 49.91294 13.12717 19364 ft 325 kts 96°
2026-05-07 10:34 49.91174 13.16220 19066 ft 324 kts 96°
2026-05-07 10:35 49.91054 13.19704 18749 ft 323 kts 96°
2026-05-07 10:35 49.91055 13.23186 18426 ft 325 kts 86°
2026-05-07 10:35 49.91594 13.26594 18103 ft 326 kts 71°
2026-05-07 10:35 49.92483 13.29825 17764 ft 325 kts 68°
2026-05-07 10:36 49.93430 13.32972 17435 ft 324 kts 66°
2026-05-07 10:36 49.94394 13.36119 17099 ft 323 kts 66°
2026-05-07 10:36 49.95352 13.39256 16777 ft 321 kts 66°
2026-05-07 10:36 49.96299 13.42384 16458 ft 319 kts 67°
2026-05-07 10:37 49.97234 13.45494 16137 ft 317 kts 67°
2026-05-07 10:37 49.98158 13.48591 15843 ft 315 kts 67°
2026-05-07 10:37 49.99075 13.51681 15542 ft 314 kts 67°
2026-05-07 10:37 49.99987 13.54765 15224 ft 313 kts 67°
2026-05-07 10:38 50.00892 13.57834 14930 ft 312 kts 67°
2026-05-07 10:38 50.01793 13.60895 14612 ft 311 kts 67°
2026-05-07 10:38 50.02693 13.63955 14303 ft 311 kts 67°
2026-05-07 10:38 50.02985 13.64951 14209 ft 310 kts 67°
2026-05-07 10:39 50.03535 13.66826 14023 ft 310 kts 67°
2026-05-07 10:39 50.04427 13.69869 13726 ft 309 kts 67°
2026-05-07 10:39 50.05321 13.72926 13374 ft 309 kts 68°
2026-05-07 10:39 50.06210 13.75969 13050 ft 308 kts 67°
2026-05-07 10:40 50.07096 13.79003 12734 ft 307 kts 68°
2026-05-07 10:40 50.07966 13.81988 12430 ft 305 kts 67°
2026-05-07 10:40 50.08847 13.85017 12136 ft 304 kts 68°
2026-05-07 10:40 50.09720 13.88019 11829 ft 304 kts 68°
2026-05-07 10:41 50.10590 13.91015 11516 ft 303 kts 68°
2026-05-07 10:41 50.11448 13.93974 11232 ft 303 kts 68°
2026-05-07 10:41 50.12324 13.96999 10923 ft 302 kts 68°
2026-05-07 10:41 50.13175 13.99941 10628 ft 300 kts 68°
2026-05-07 10:42 50.14032 14.02909 10335 ft 299 kts 68°
2026-05-07 10:42 50.14884 14.05860 10057 ft 297 kts 67°
2026-05-07 10:42 50.15720 14.08760 9909 ft 290 kts 68°
2026-05-07 10:42 50.16547 14.11631 9588 ft 290 kts 67°
2026-05-07 10:43 50.17370 14.14494 9295 ft 288 kts 67°
2026-05-07 10:43 50.18187 14.17342 9031 ft 287 kts 67°
2026-05-07 10:43 50.19005 14.20194 8755 ft 288 kts 67°
2026-05-07 10:43 50.19824 14.23053 8452 ft 288 kts 67°
2026-05-07 10:44 50.20640 14.25906 8166 ft 288 kts 67°
2026-05-07 10:44 50.21455 14.28756 7895 ft 287 kts 67°
2026-05-07 10:44 50.22258 14.31570 7607 ft 286 kts 67°
2026-05-07 10:44 50.23062 14.34392 7345 ft 284 kts 67°
2026-05-07 10:45 50.23864 14.37208 7081 ft 284 kts 67°
2026-05-07 10:45 50.24671 14.40040 6812 ft 286 kts 67°
2026-05-07 10:45 50.25477 14.42879 6508 ft 286 kts 66°
2026-05-07 10:45 50.26279 14.45704 6387 ft 279 kts 66°
2026-05-07 10:46 50.27056 14.48433 6230 ft 269 kts 66°
2026-05-07 10:46 50.27514 14.51189 6064 ft 257 kts 93°
2026-05-07 10:46 50.27126 14.53748 5947 ft 239 kts 122°
2026-05-07 10:46 50.26167 14.55740 5892 ft 220 kts 141°
2026-05-07 10:47 50.24956 14.57034 5761 ft 207 kts 158°
2026-05-07 10:47 50.23678 14.57988 5542 ft 199 kts 160°
2026-05-07 10:47 50.22401 14.58566 5349 ft 186 kts 185°
2026-05-07 10:47 50.21185 14.58050 5182 ft 181 kts 214°
2026-05-07 10:48 50.20359 14.56662 4979 ft 173 kts 246°
2026-05-07 10:48 50.19918 14.54962 4785 ft 166 kts 245°
2026-05-07 10:48 50.19438 14.53382 4595 ft 157 kts 244°
2026-05-07 10:48 50.18985 14.51898 4408 ft 151 kts 244°
2026-05-07 10:49 50.18681 14.50896 4305 ft 152 kts 244°
2026-05-07 10:49 50.18085 14.48921 4169 ft 148 kts 244°
2026-05-07 10:49 50.17640 14.47445 3956 ft 150 kts 244°
2026-05-07 10:49 50.17197 14.45977 3755 ft 147 kts 244°
2026-05-07 10:50 50.16915 14.45043 3625 ft 141 kts 244°
2026-05-07 10:50 50.16508 14.43691 3442 ft 136 kts 244°
2026-05-07 10:50 50.16113 14.42382 3278 ft 133 kts 245°
2026-05-07 10:50 50.15717 14.41064 3101 ft 136 kts 244°
2026-05-07 10:51 50.15316 14.39731 2912 ft 135 kts 244°
2026-05-07 10:51 50.14910 14.38410 2616 ft 135 kts 244°
2026-05-07 10:51 50.14483 14.37099 2300 ft 135 kts 241°
2026-05-07 10:51 50.14050 14.35829 2027 ft 130 kts 244°
2026-05-07 10:52 50.13691 14.34524 1934 ft 134 kts 248°
2026-05-07 10:52 50.13331 14.33155 1805 ft 136 kts 245°
2026-05-07 10:52 50.12931 14.31846 1658 ft 132 kts 244°
2026-05-07 10:52 50.12547 14.30576 1463 ft 132 kts 245°
2026-05-07 10:53 50.12173 14.29253 1362 ft 133 kts 243°
2026-05-07 10:53 50.11772 14.27970 1256 ft 130 kts 246°
2026-05-07 10:53 50.11385 14.26696 1165 ft 131 kts 243°
2026-05-07 10:53 50.10997 14.25419 1159 ft 128 kts 245°
2026-05-07 10:54 50.10699 14.24371 1162 ft 72 kts 247°
2026-05-07 10:54 50.10532 14.23800 1167 ft 46 kts 245°
2026-05-07 10:54 50.10405 14.23473 1182 ft 30 kts 221°
2026-05-07 10:54 50.10301 14.23421 1190 ft 14 kts 167°
2026-05-07 10:55 50.10229 14.23505 1191 ft 13 kts 120°
2026-05-07 10:55 50.10223 14.23647 1187 ft 15 kts 77°
2026-05-07 10:55 50.10246 14.23833 1177 ft 20 kts 79°
2026-05-07 10:55 50.10274 14.24044 1170 ft 21 kts 78°
2026-05-07 10:56 50.10302 14.24274 1166 ft 23 kts 78°
2026-05-07 10:56 50.10333 14.24521 1165 ft 23 kts 79°
2026-05-07 10:56 50.10363 14.24760 1167 ft 22 kts 78°
2026-05-07 10:56 50.10392 14.24992 1167 ft 22 kts 78°
2026-05-07 10:57 50.10416 14.25173 1169 ft 16 kts 78°
2026-05-07 10:57 50.10437 14.25342 1172 ft 16 kts 80°
2026-05-07 10:57 50.10457 14.25509 1179 ft 15 kts 79°
2026-05-07 10:57 50.10477 14.25669 1178 ft 15 kts 79°
2026-05-07 10:58 50.10497 14.25843 1176 ft 18 kts 79°
2026-05-07 10:58 50.10569 14.26011 1172 ft 20 kts 34°
2026-05-07 10:58 50.10683 14.26128 1170 ft 19 kts 34°
2026-05-07 10:58 50.10779 14.26229 1173 ft 10 kts 34°
2026-05-07 10:59 50.10809 14.26314 1172 ft 10 kts 104°
2026-05-07 10:59 50.10803 14.26348 1171 ft 1 kts 106°
2026-05-07 10:59 50.10803 14.26388 1173 ft 5 kts 71°
2026-05-07 10:59 50.10831 14.26425 1172 ft 5 kts 34°
2026-05-07 11:00 50.10846 14.26441 1171 ft 0 kts 35°